Time,TemperatureF,DewpointF,PressureIn,WindDirection,WindDirectionDegrees,WindSpeedMPH,WindSpeedGustMPH,Humidity,HourlyPrecipIn,Conditions,Clouds,dailyrainin,SoftwareType,DateUTC
2013-04-07 00:02:00,35.0,-99.9,-100.00,North,10,9.0,-999.0,0,-99.99,,,-99.99,,2013-04-07 05:02:00,
2013-04-07 00:12:00,34.0,-99.9,-100.00,South,175,6.0,-999.0,0,-99.99,,,-99.99,,2013-04-07 05:12:00,
2013-04-07 00:23:00,34.0,-99.9,-100.00,North,5,7.0,-999.0,0,-99.99,,,-99.99,,2013-04-07 05:23:00,
2013-04-07 00:34:00,34.0,-99.9,-100.00,North,-999,7.0,-999.0,0,-99.99,,,-99.99,,2013-04-07 05:34:00,
2013-04-07 00:43:00,34.0,-99.9,-100.00,South,176,13.0,-999.0,0,-99.99,,,-99.99,,2013-04-07 05:43:00,
2013-04-07 00:53:00,34.0,-99.9,-100.00,South,175,7.0,-999.0,0,-99.99,,,-99.99,,2013-04-07 05:53:00,
2013-04-07 01:02:00,34.0,-99.9,-100.00,East,91,15.0,-999.0,0,-99.99,,,-99.99,,2013-04-07 06:02:00,
2013-04-07 01:13:00,34.0,-99.9,-100.00,West,261,8.0,-999.0,0,-99.99,,,-99.99,,2013-04-07 06:13:00,
2013-04-07 01:22:00,34.0,-99.9,-100.00,North,9,10.0,-999.0,0,-99.99,,,-99.99,,2013-04-07 06:22:00,
2013-04-07 01:33:00,34.0,-99.9,-100.00,North,-999,13.0,-999.0,0,-99.99,,,-99.99,,2013-04-07 06:33:00,
2013-04-07 01:43:00,34.0,-99.9,-100.00,NNE,21,12.0,-999.0,0,-99.99,,,-99.99,,2013-04-07 06:43:00,
2013-04-07 01:53:00,34.0,-99.9,-100.00,North,6,15.0,-999.0,0,-99.99,,,-99.99,,2013-04-07 06:53:00,
2013-04-07 02:02:00,33.0,-99.9,-100.00,NNE,12,14.0,-999.0,0,-99.99,,,-99.99,,2013-04-07 07:02:00,
2013-04-07 02:12:00,33.0,-99.9,-100.00,West,259,12.0,-999.0,0,-99.99,,,-99.99,,2013-04-07 07:12:00,
2013-04-07 02:22:00,33.0,-99.9,-100.00,East,93,12.0,-999.0,0,-99.99,,,-99.99,,2013-04-07 07:22:00,
2013-04-07 02:33:00,33.0,-99.9,-100.00,NNE,14,10.0,-999.0,0,-99.99,,,-99.99,,2013-04-07 07:33:00,
2013-04-07 02:42:00,33.0,-99.9,-100.00,NNE,20,12.0,-999.0,0,-99.99,,,-99.99,,2013-04-07 07:42:00,
2013-04-07 02:52:00,33.0,-99.9,-100.00,North,2,11.0,-999.0,0,-99.99,,,-99.99,,2013-04-07 07:52:00,
2013-04-07 03:02:00,34.0,-99.9,-100.00,NNE,17,7.0,-999.0,0,-99.99,,,-99.99,,2013-04-07 08:02:00,
2013-04-07 03:13:00,34.0,-99.9,-100.00,East,91,7.0,-999.0,0,-99.99,,,-99.99,,2013-04-07 08:13:00,
2013-04-07 03:23:00,33.0,-99.9,-100.00,NNE,24,11.0,-999.0,0,-99.99,,,-99.99,,2013-04-07 08:23:00,
2013-04-07 03:33:00,33.0,-99.9,-100.00,NE,44,7.0,-999.0,0,-99.99,,,-99.99,,2013-04-07 08:33:00,
2013-04-07 03:43:00,33.0,-99.9,-100.00,NE,48,9.0,-999.0,0,-99.99,,,-99.99,,2013-04-07 08:43:00,
2013-04-07 03:53:00,33.0,-99.9,-100.00,ENE,58,5.0,-999.0,0,-99.99,,,-99.99,,2013-04-07 08:53:00,
2013-04-07 04:02:00,33.0,-99.9,-100.00,NE,56,5.0,-999.0,0,-99.99,,,-99.99,,2013-04-07 09:02:00,
2013-04-07 04:13:00,33.0,-99.9,-100.00,NNE,20,8.0,-999.0,0,-99.99,,,-99.99,,2013-04-07 09:13:00,
2013-04-07 04:23:00,33.0,-99.9,-100.00,ENE,64,6.0,-999.0,0,-99.99,,,-99.99,,2013-04-07 09:23:00,
2013-04-07 04:34:00,33.0,-99.9,-100.00,NNE,30,7.0,-999.0,0,-99.99,,,-99.99,,2013-04-07 09:34:00,
2013-04-07 04:47:00,33.0,-99.9,-100.00,NNE,26,6.0,-999.0,0,-99.99,,,-99.99,,2013-04-07 09:47:00,
2013-04-07 04:54:00,33.0,-99.9,-100.00,NNE,33,9.0,-999.0,0,-99.99,,,-99.99,,2013-04-07 09:54:00,
2013-04-07 05:05:00,33.0,-99.9,-100.00,NE,37,9.0,-999.0,0,-99.99,,,-99.99,,2013-04-07 10:05:00,
2013-04-07 05:14:00,33.0,-99.9,-100.00,NE,45,9.0,-999.0,0,-99.99,,,-99.99,,2013-04-07 10:14:00,
2013-04-07 05:23:00,33.0,-99.9,-100.00,NNE,24,9.0,-999.0,0,-99.99,,,-99.99,,2013-04-07 10:23:00,
2013-04-07 05:34:00,32.0,-99.9,-100.00,NNE,14,8.0,-999.0,0,-99.99,,,-99.99,,2013-04-07 10:34:00,
2013-04-07 05:44:00,33.0,-99.9,-100.00,NNE,26,8.0,-999.0,0,-99.99,,,-99.99,,2013-04-07 10:44:00,
2013-04-07 05:55:00,33.0,-99.9,-100.00,NNE,26,8.0,-999.0,0,-99.99,,,-99.99,,2013-04-07 10:55:00,
2013-04-07 06:04:00,32.0,-99.9,-100.00,NE,54,5.0,-999.0,0,-99.99,,,-99.99,,2013-04-07 11:04:00,
2013-04-07 06:13:00,32.0,-99.9,-100.00,NNE,32,7.0,-999.0,0,-99.99,,,-99.99,,2013-04-07 11:13:00,
2013-04-07 06:23:00,32.0,-99.9,-100.00,NE,54,6.0,-999.0,0,-99.99,,,-99.99,,2013-04-07 11:23:00,
2013-04-07 06:33:00,32.0,-99.9,-100.00,ENE,60,7.0,-999.0,0,-99.99,,,-99.99,,2013-04-07 11:33:00,
2013-04-07 06:43:00,32.0,-99.9,-100.00,ENE,58,4.0,-999.0,0,-99.99,,,-99.99,,2013-04-07 11:43:00,
2013-04-07 06:53:00,32.0,-99.9,-100.00,NE,50,7.0,-999.0,0,-99.99,,,-99.99,,2013-04-07 11:53:00,
2013-04-07 07:03:00,32.0,-99.9,-100.00,ENE,67,6.0,-999.0,0,-99.99,,,-99.99,,2013-04-07 12:03:00,
2013-04-07 07:13:00,32.0,-99.9,-100.00,NE,45,6.0,-999.0,0,-99.99,,,-99.99,,2013-04-07 12:13:00,
2013-04-07 07:23:00,32.0,-99.9,-100.00,North,9,6.0,-999.0,0,-99.99,,,-99.99,,2013-04-07 12:23:00,
2013-04-07 07:35:00,32.0,-99.9,-100.00,East,86,6.0,-999.0,0,-99.99,,,-99.99,,2013-04-07 12:35:00,
2013-04-07 07:44:00,31.0,-99.9,-100.00,ENE,66,6.0,-999.0,0,-99.99,,,-99.99,,2013-04-07 12:44:00,
2013-04-07 07:54:00,31.0,-99.9,-100.00,ENE,75,5.0,-999.0,0,-99.99,,,-99.99,,2013-04-07 12:54:00,
2013-04-07 08:05:00,31.0,-99.9,-100.00,NE,55,10.0,-999.0,0,-99.99,,,-99.99,,2013-04-07 13:05:00,
2013-04-07 08:14:00,31.0,-99.9,-100.00,NE,46,9.0,-999.0,0,-99.99,,,-99.99,,2013-04-07 13:14:00,
2013-04-07 08:23:00,31.0,-99.9,-100.00,ENE,66,8.0,-999.0,0,-99.99,,,-99.99,,2013-04-07 13:23:00,
2013-04-07 08:34:00,31.0,-99.9,-100.00,East,83,9.0,-999.0,0,-99.99,,,-99.99,,2013-04-07 13:34:00,
2013-04-07 08:43:00,31.0,-99.9,-100.00,NE,47,6.0,-999.0,0,-99.99,,,-99.99,,2013-04-07 13:43:00,
2013-04-07 08:54:00,31.0,-99.9,-100.00,NE,56,5.0,-999.0,0,-99.99,,,-99.99,,2013-04-07 13:54:00,
2013-04-07 09:03:00,32.0,-99.9,-100.00,ENE,77,5.0,-999.0,0,-99.99,,,-99.99,,2013-04-07 14:03:00,
2013-04-07 09:13:00,31.0,-99.9,-100.00,ENE,59,7.0,-999.0,0,-99.99,,,-99.99,,2013-04-07 14:13:00,
2013-04-07 09:24:00,32.0,-99.9,-100.00,East,81,8.0,-999.0,0,-99.99,,,-99.99,,2013-04-07 14:24:00,
2013-04-07 09:34:00,31.0,-99.9,-100.00,ENE,59,8.0,-999.0,0,-99.99,,,-99.99,,2013-04-07 14:34:00,
2013-04-07 09:45:00,31.0,-99.9,-100.00,ENE,76,6.0,-999.0,0,-99.99,,,-99.99,,2013-04-07 14:45:00,
2013-04-07 09:55:00,32.0,-99.9,-100.00,ENE,75,7.0,-999.0,0,-99.99,,,-99.99,,2013-04-07 14:55:00,
2013-04-07 10:04:00,32.0,-99.9,-100.00,ESE,113,12.0,-999.0,0,-99.99,,,-99.99,,2013-04-07 15:04:00,
2013-04-07 10:13:00,32.0,-99.9,-100.00,East,82,10.0,-999.0,0,-99.99,,,-99.99,,2013-04-07 15:13:00,
2013-04-07 10:23:00,33.0,-99.9,-100.00,East,80,12.0,-999.0,0,-99.99,,,-99.99,,2013-04-07 15:23:00,
2013-04-07 10:35:00,33.0,-99.9,-100.00,East,80,12.0,-999.0,0,-99.99,,,-99.99,,2013-04-07 15:35:00,
2013-04-07 10:46:00,33.0,-99.9,-100.00,ENE,77,7.0,-999.0,0,-99.99,,,-99.99,,2013-04-07 15:46:00,
2013-04-07 10:55:00,33.0,-99.9,-100.00,East,79,11.0,-999.0,0,-99.99,,,-99.99,,2013-04-07 15:55:00,
2013-04-07 11:05:00,34.0,-99.9,-100.00,East,82,8.0,-999.0,0,-99.99,,,-99.99,,2013-04-07 16:05:00,
2013-04-07 11:14:00,35.0,-99.9,-100.00,East,93,12.0,-999.0,0,-99.99,,,-99.99,,2013-04-07 16:14:00,
2013-04-07 11:25:00,36.0,-99.9,-100.00,ENE,77,11.0,-999.0,0,-99.99,,,-99.99,,2013-04-07 16:25:00,
2013-04-07 11:34:00,36.0,-99.9,-100.00,ESE,112,12.0,-999.0,0,-99.99,,,-99.99,,2013-04-07 16:34:00,
2013-04-07 11:44:00,38.0,-99.9,-100.00,ESE,120,9.0,-999.0,0,-99.99,,,-99.99,,2013-04-07 16:44:00,
2013-04-07 11:54:00,39.0,-99.9,-100.00,ESE,119,13.0,-999.0,0,-99.99,,,-99.99,,2013-04-07 16:54:00,
2013-04-07 12:05:00,41.0,-99.9,-100.00,East,90,11.0,-999.0,0,-99.99,,,-99.99,,2013-04-07 17:05:00,
2013-04-07 12:15:00,41.0,-99.9,-100.00,East,84,16.0,-999.0,0,-99.99,,,-99.99,,2013-04-07 17:15:00,
2013-04-07 12:24:00,42.0,-99.9,-100.00,ESE,110,22.0,-999.0,0,-99.99,,,-99.99,,2013-04-07 17:24:00,
2013-04-07 12:34:00,42.0,-99.9,-100.00,ENE,67,11.0,-999.0,0,-99.99,,,-99.99,,2013-04-07 17:34:00,
2013-04-07 12:44:00,45.0,-99.9,-100.00,East,92,15.0,-999.0,0,-99.99,,,-99.99,,2013-04-07 17:44:00,
2013-04-07 12:54:00,46.0,-99.9,-100.00,East,100,14.0,-999.0,0,-99.99,,,-99.99,,2013-04-07 17:54:00,
2013-04-07 13:03:00,46.0,-99.9,-100.00,East,100,14.0,-999.0,0,-99.99,,,-99.99,,2013-04-07 18:03:00,
2013-04-07 13:14:00,48.0,-99.9,-100.00,ESE,118,21.0,-999.0,0,-99.99,,,-99.99,,2013-04-07 18:14:00,
2013-04-07 13:24:00,49.0,-99.9,-100.00,SSE,165,18.0,-999.0,0,-99.99,,,-99.99,,2013-04-07 18:24:00,
2013-04-07 13:34:00,49.0,-99.9,-100.00,ESE,120,16.0,-999.0,0,-99.99,,,-99.99,,2013-04-07 18:34:00,
2013-04-07 13:44:00,49.0,-99.9,-100.00,ESE,113,10.0,-999.0,0,-99.99,,,-99.99,,2013-04-07 18:44:00,
2013-04-07 13:53:00,50.0,-99.9,-100.00,South,170,8.0,-999.0,0,-99.99,,,-99.99,,2013-04-07 18:53:00,
2013-04-07 14:03:00,50.0,-99.9,-100.00,South,170,8.0,-999.0,0,-99.99,,,-99.99,,2013-04-07 19:03:00,
2013-04-07 14:13:00,50.0,-99.9,-100.00,SE,134,13.0,-999.0,0,-99.99,,,-99.99,,2013-04-07 19:13:00,
2013-04-07 14:23:00,50.0,-99.9,-100.00,East,99,13.0,-999.0,0,-99.99,,,-99.99,,2013-04-07 19:23:00,
2013-04-07 14:33:00,50.0,-99.9,-100.00,SE,137,13.0,-999.0,0,-99.99,,,-99.99,,2013-04-07 19:33:00,
2013-04-07 14:44:00,51.0,-99.9,-100.00,SE,140,18.0,-999.0,0,-99.99,,,-99.99,,2013-04-07 19:44:00,
2013-04-07 14:55:00,52.0,-99.9,-100.00,SSE,158,17.0,-999.0,0,-99.99,,,-99.99,,2013-04-07 19:55:00,
2013-04-07 15:04:00,52.0,-99.9,-100.00,SSE,161,12.0,-999.0,0,-99.99,,,-99.99,,2013-04-07 20:04:00,
2013-04-07 15:13:00,52.0,-99.9,-100.00,SE,131,15.0,-999.0,0,-99.99,,,-99.99,,2013-04-07 20:13:00,
2013-04-07 15:23:00,52.0,-99.9,-100.00,SSE,153,17.0,-999.0,0,-99.99,,,-99.99,,2013-04-07 20:23:00,
2013-04-07 15:34:00,52.0,-99.9,-100.00,SSE,162,17.0,-999.0,0,-99.99,,,-99.99,,2013-04-07 20:34:00,
2013-04-07 15:45:00,51.0,-99.9,-100.00,SE,136,17.0,-999.0,0,-99.99,,,-99.99,,2013-04-07 20:45:00,
2013-04-07 15:55:00,51.0,-99.9,-100.00,SE,125,19.0,-999.0,0,-99.99,,,-99.99,,2013-04-07 20:55:00,
2013-04-07 16:04:00,51.0,-99.9,-100.00,SSE,153,10.0,-999.0,0,-99.99,,,-99.99,,2013-04-07 21:04:00,
2013-04-07 16:14:00,51.0,-99.9,-100.00,SE,128,17.0,-999.0,0,-99.99,,,-99.99,,2013-04-07 21:14:00,
2013-04-07 16:23:00,51.0,-99.9,-100.00,SE,135,20.0,-999.0,0,-99.99,,,-99.99,,2013-04-07 21:23:00,
2013-04-07 16:35:00,51.0,-99.9,-100.00,SSE,161,19.0,-999.0,0,-99.99,,,-99.99,,2013-04-07 21:35:00,
2013-04-07 16:45:00,51.0,-99.9,-100.00,SSE,153,16.0,-999.0,0,-99.99,,,-99.99,,2013-04-07 21:45:00,
2013-04-07 16:55:00,51.0,-99.9,-100.00,SSE,153,11.0,-999.0,0,-99.99,,,-99.99,,2013-04-07 21:55:00,
2013-04-07 17:05:00,51.0,-99.9,-100.00,SSE,157,13.0,-999.0,0,-99.99,,,-99.99,,2013-04-07 22:05:00,
2013-04-07 17:15:00,51.0,-99.9,-100.00,SSE,158,18.0,-999.0,0,-99.99,,,-99.99,,2013-04-07 22:15:00,
2013-04-07 17:24:00,50.0,-99.9,-100.00,SSE,167,13.0,-999.0,0,-99.99,,,-99.99,,2013-04-07 22:24:00,
2013-04-07 17:35:00,50.0,-99.9,-100.00,SSE,161,12.0,-999.0,0,-99.99,,,-99.99,,2013-04-07 22:35:00,
2013-04-07 17:44:00,50.0,-99.9,-100.00,SSE,157,15.0,-999.0,0,-99.99,,,-99.99,,2013-04-07 22:44:00,
2013-04-07 17:54:00,50.0,-99.9,-100.00,SSE,158,7.0,-999.0,0,-99.99,,,-99.99,,2013-04-07 22:54:00,
2013-04-07 18:04:00,49.0,-99.9,-100.00,SE,141,9.0,-999.0,0,-99.99,,,-99.99,,2013-04-07 23:04:00,
2013-04-07 18:13:00,49.0,-99.9,-100.00,SE,133,11.0,-999.0,0,-99.99,,,-99.99,,2013-04-07 23:13:00,
2013-04-07 18:23:00,48.0,-99.9,-100.00,ESE,121,5.0,-999.0,0,-99.99,,,-99.99,,2013-04-07 23:23:00,
2013-04-07 18:33:00,48.0,-99.9,-100.00,SE,124,7.0,-999.0,0,-99.99,,,-99.99,,2013-04-07 23:33:00,
2013-04-07 18:43:00,48.0,-99.9,-100.00,SE,142,6.0,-999.0,0,-99.99,,,-99.99,,2013-04-07 23:43:00,
2013-04-07 18:53:00,47.0,-99.9,-100.00,SE,140,6.0,-999.0,0,-99.99,,,-99.99,,2013-04-07 23:53:00,
2013-04-07 19:03:00,47.0,-99.9,-100.00,SE,140,6.0,-999.0,0,-99.99,,,-99.99,,2013-04-08 00:03:00,
2013-04-07 19:13:00,47.0,-99.9,-100.00,ESE,120,3.0,-999.0,0,-99.99,,,-99.99,,2013-04-08 00:13:00,
2013-04-07 19:23:00,47.0,-99.9,-100.00,ESE,118,9.0,-999.0,0,-99.99,,,-99.99,,2013-04-08 00:23:00,
2013-04-07 19:33:00,46.0,-99.9,-100.00,ESE,109,7.0,-999.0,0,-99.99,,,-99.99,,2013-04-08 00:33:00,
2013-04-07 19:43:00,46.0,-99.9,-100.00,East,87,4.0,-999.0,0,-99.99,,,-99.99,,2013-04-08 00:43:00,
2013-04-07 19:53:00,46.0,-99.9,-100.00,ESE,107,8.0,-999.0,0,-99.99,,,-99.99,,2013-04-08 00:53:00,
2013-04-07 20:03:00,46.0,-99.9,-100.00,ESE,122,5.0,-999.0,0,-99.99,,,-99.99,,2013-04-08 01:03:00,
2013-04-07 20:13:00,46.0,-99.9,-100.00,ESE,114,5.0,-999.0,0,-99.99,,,-99.99,,2013-04-08 01:13:00,
2013-04-07 20:23:00,46.0,-99.9,-100.00,ESE,118,6.0,-999.0,0,-99.99,,,-99.99,,2013-04-08 01:23:00,
2013-04-07 20:34:00,46.0,-99.9,-100.00,East,101,7.0,-999.0,0,-99.99,,,-99.99,,2013-04-08 01:34:00,
2013-04-07 20:45:00,46.0,-99.9,-100.00,SE,142,8.0,-999.0,0,-99.99,,,-99.99,,2013-04-08 01:45:00,
2013-04-07 20:55:00,46.0,-99.9,-100.00,ESE,121,8.0,-999.0,0,-99.99,,,-99.99,,2013-04-08 01:55:00,
2013-04-07 21:03:00,46.0,-99.9,-100.00,SE,142,8.0,-999.0,0,-99.99,,,-99.99,,2013-04-08 02:03:00,
2013-04-07 21:12:00,46.0,-99.9,-100.00,ESE,106,6.0,-999.0,0,-99.99,,,-99.99,,2013-04-08 02:12:00,
2013-04-07 21:22:00,46.0,-99.9,-100.00,ESE,113,8.0,-999.0,0,-99.99,,,-99.99,,2013-04-08 02:22:00,
2013-04-07 21:33:00,46.0,-99.9,-100.00,East,90,4.0,-999.0,0,-99.99,,,-99.99,,2013-04-08 02:33:00,
2013-04-07 21:50:00,46.0,-99.9,-100.00,NNE,14,4.0,-999.0,0,-99.99,,,-99.99,,2013-04-08 02:50:00,
2013-04-07 21:56:00,46.0,-99.9,-100.00,ENE,71,2.0,-999.0,0,-99.99,,,-99.99,,2013-04-08 02:56:00,
2013-04-07 22:10:00,46.0,-99.9,-100.00,ENE,61,3.0,-999.0,0,-99.99,,,-99.99,,2013-04-08 03:10:00,
2013-04-07 22:27:00,46.0,-99.9,-100.00,ESE,108,12.0,-999.0,0,-99.99,,,-99.99,,2013-04-08 03:27:00,
2013-04-07 22:37:00,46.0,-99.9,-100.00,ESE,102,5.0,-999.0,0,-99.99,,,-99.99,,2013-04-08 03:37:00,
2013-04-07 22:48:00,46.0,-99.9,-100.00,ESE,113,8.0,-999.0,0,-99.99,,,-99.99,,2013-04-08 03:48:00,
2013-04-07 22:58:00,46.0,-99.9,-100.00,SE,130,13.0,-999.0,0,-99.99,,,-99.99,,2013-04-08 03:58:00,
2013-04-07 23:04:00,46.0,-99.9,-100.00,ESE,118,7.0,-999.0,0,-99.99,,,-99.99,,2013-04-08 04:04:00,
2013-04-07 23:13:00,46.0,-99.9,-100.00,ESE,113,8.0,-999.0,0,-99.99,,,-99.99,,2013-04-08 04:13:00,
2013-04-07 23:23:00,46.0,-99.9,-100.00,ESE,120,10.0,-999.0,0,-99.99,,,-99.99,,2013-04-08 04:23:00,
2013-04-07 23:35:00,46.0,-99.9,-100.00,ESE,117,10.0,-999.0,0,-99.99,,,-99.99,,2013-04-08 04:35:00,
2013-04-07 23:45:00,46.0,-99.9,-100.00,SE,132,10.0,-999.0,0,-99.99,,,-99.99,,2013-04-08 04:45:00,
2013-04-07 23:53:00,46.0,-99.9,-100.00,ESE,116,9.0,-999.0,0,-99.99,,,-99.99,,2013-04-08 04:53:00,